Temperature
11 11 11 11 12 12 12 12 12 12 12 12 12 12 12 12 12 12 12 12 12 12 12 11 11 11 11 11 11 11 10 10 10 10 9 9 9 9 9 9 9 9 8
10 10 11 11 11 12 12 12 12 12 12 12 12 12 12 11 11 11 11 11 11 11 11 11 11 11 11 10 10 10 10 10 9 9 9 9 9 9 9 9 9 8 8
10 10 10 10 11 11 11 11 11 11 11 11 11 11 11 11 11 11 11 11 11 11 11 10 10 10 10 10 10 10 10 9 9 9 8 8 9 8 8 8 8 8 8
9 9 10 10 10 11 11 11 11 11 11 11 11 11 11 11 11 11 11 10 10 10 10 10 10 10 10 9 9 9 9 9 9 9 8 8 8 7 7 7 7 7 7
9 9 9 9 10 10 10 10 11 11 11 11 11 11 10 10 10 10 10 10 10 10 10 10 9 9 9 9 9 9 9 8 8 8 8 8 7 7 6 7 7 7 7
8 8 9 9 9 9 10 10 10 10 10 10 10 10 10 10 10 9 10 9 9 9 9 9 9 9 9 9 9 8 8 8 8 8 7 7 7 6 6 6 6 6 6
7 8 8 8 9 9 9 9 9 10 10 10 10 10 10 9 9 9 9 9 9 9 9 9 9 9 9 8 8 8 8 8 8 7 7 7 6 6 6 5 5 5 5
6 7 7 8 8 8 9 9 9 9 9 9 9 9 9 9 9 9 9 9 9 8 8 8 8 8 8 8 8 8 8 7 7 7 7 6 6 6 6 5 5 4 4
6 6 7 7 8 8 8 8 9 9 9 9 9 9 8 8 8 8 8 8 8 8 8 8 8 8 8 7 7 7 7 7 7 6 6 6 6 5 5 5 4 4 3
5 5 6 6 7 7 8 8 8 8 8 8 8 8 8 8 8 8 8 8 8 8 7 7 7 7 7 7 7 7 7 7 6 6 6 6 5 5 5 5 4 4 3
4 4 5 6 6 6 7 7 7 8 8 8 8 8 8 7 7 7 7 7 7 7 7 7 7 7 6 6 6 6 6 6 6 6 5 5 5 5 4 4 4 4 3
3 4 4 5 5 6 6 6 7 7 7 7 7 7 7 7 7 7 7 7 7 7 6 6 6 6 6 6 6 6 6 5 5 5 5 5 4 4 4 4 3 3 3
3 3 4 4 5 5 5 6 6 6 6 6 6 6 6 6 6 6 6 6 6 6 6 6 6 6 6 5 5 5 5 5 5 4 4 4 4 3 3 3 3 3 2
2 3 3 3 4 4 5 5 5 5 5 6 6 6 6 6 6 6 6 6 5 5 5 5 5 5 5 5 5 4 4 4 4 4 4 3 3 3 3 3 2 2 2
2 2 2 3 3 3 4 4 4 5 5 5 5 5 5 5 5 5 5 5 5 5 5 5 5 4 4 4 4 4 4 4 3 3 3 3 3 3 2 2 2 2 2
1 1 2 2 3 3 3 3 4 4 4 4 4 4 4 4 4 4 4 4 4 4 4 4 4 4 4 4 4 3 3 3 3 3 3 2 2 2 2 2 2 2 1
0 1 1 2 2 2 2 3 3 3 3 3 4 4 4 4 4 4 4 4 4 4 4 4 3 3 3 3 3 3 3 2 2 2 2 2 2 1 1 1 1 1 1
-0 0 1 1 1 2 2 2 2 2 3 3 3 3 3 3 3 3 3 3 3 3 3 3 3 3 3 3 2 2 2 2 2 2 1 1 1 1 1 1 1 1 1
-0 -0 0 1 1 1 1 2 2 2 2 2 2 2 2 2 2 2 2 2 2 2 2 2 2 2 2 2 2 2 1 1 1 1 1 0 0 0 0 0 0 0 0
-1 -0 0 0 1 1 1 1 1 1 1 1 1 2 2 2 2 2 2 2 2 1 1 1 1 1 1 1 1 1 1 0 0 0 -0 -0 -0 -0 -0 -0 -0 -0 -0
-1 -1 -0 -0 -0 -0 -0 0 0 0 1 1 1 1 1 1 1 1 1 1 1 1 0 1 1 1 1 1 0 0 -0 -0 -0 -0 -1 -1 -1 -1 -1 -1 -1 -1 -1
-2 -1 -1 -1 -1 -1 -1 -0 -0 -0 -0 0 0 0 0 0 0 0 0 0 0 0 -0 -0 -0 -0 -0 -0 -0 -1 -1 -1 -1 -1 -1 -1 -1 -1 -1 -1 -1 -2 -2
-2 -2 -2 -1 -1 -1 -1 -1 -1 -1 -1 -0 -0 -0 -0 -0 -0 -0 -0 -0 -1 -1 -1 -1 -1 -1 -1 -1 -1 -1 -1 -1 -2 -2 -1 -1 -1 -1 -1 -2 -2 -2 -2
-3 -2 -2 -2 -2 -2 -2 -1 -1 -1 -1 -1 -1 -1 -1 -1 -1 -1 -1 -1 -1 -1 -1 -1 -1 -1 -2 -2 -2 -2 -2 -2 -2 -2 -2 -2 -2 -2 -2 -2 -2 -2 -3
-3 -3 -2 -2 -2 -2 -2 -2 -2 -2 -2 -2 -2 -2 -2 -2 -2 -2 -2 -2 -2 -2 -2 -2 -2 -2 -2 -2 -2 -2 -2 -2 -2 -2 -3 -3 -3 -3 -3 -3 -3 -3 -3
-3 -3 -3 -3 -3 -3 -3 -2 -3 -3 -3 -2 -2 -2 -2 -2 -3 -2 -3 -2 -2 -2 -2 -2 -2 -2 -3 -3 -3 -3 -3 -3 -3 -3 -3 -3 -3 -3 -3 -3 -3 -3 -3
Wind_Speed
5 4 5 5 6 6 6 7 7 7 6 5 5 5 4 4 3 3 4 5 5 5 4 3 3 2 2 2 2 2 1 0 0 1 1 1 2 2 1 1 1 1 2
5 4 4 4 6 7 7 6 7 7 7 6 5 3 4 3 3 3 4 4 5 5 4 3 3 2 2 2 2 2 1 1 1 2 2 2 3 2 2 2 2 2 2
6 5 4 4 4 5 6 6 7 7 7 7 5 5 4 3 2 3 3 3 4 5 4 4 3 2 2 2 2 2 2 2 1 1 2 2 2 2 2 3 2 2 2
6 5 4 4 4 4 4 6 7 7 7 7 7 8 6 5 4 4 3 4 4 4 4 4 4 3 2 2 2 2 2 2 2 1 2 2 3 3 2 3 2 3 4
5 5 4 3 2 2 3 5 6 7 7 7 8 7 5 4 3 4 5 4 4 4 4 4 3 3 2 2 2 2 2 2 2 2 1 2 2 3 4 4 4 4 4
5 4 3 2 2 1 2 3 5 6 7 7 7 7 7 6 6 6 5 4 3 3 3 3 3 3 2 2 2 2 2 1 2 2 2 2 2 3 4 5 5 5 4
4 3 3 3 2 3 4 4 5 6 6 7 7 7 7 7 7 6 6 5 3 3 3 3 3 3 2 2 2 2 1 2 2 2 2 2 3 3 4 5 5 5 4
3 3 3 2 3 3 4 4 5 5 6 6 6 6 6 5 5 6 5 5 3 3 4 3 3 2 2 2 2 2 2 2 2 2 2 2 2 3 3 4 5 5 4
2 2 2 2 2 2 4 5 5 5 5 6 6 6 6 6 6 6 5 4 3 3 4 4 3 2 2 2 2 2 2 2 2 2 3 2 2 3 3 3 4 5 5
1 1 1 2 2 2 2 3 5 5 5 5 5 5 5 6 6 5 5 5 5 5 5 4 3 3 3 2 2 2 2 2 2 2 3 3 3 3 3 3 4 5 6
1 1 1 2 2 2 2 3 4 4 4 5 5 6 5 5 5 5 5 5 5 5 5 4 4 3 3 2 2 2 2 2 3 3 3 4 4 3 4 4 4 5 5
1 1 1 1 2 2 2 3 4 4 4 5 5 5 5 5 5 5 5 5 5 4 4 4 4 3 3 3 3 3 3 3 4 4 4 4 3 5 4 4 5 5 6
2 1 1 1 2 2 2 2 3 3 4 4 5 5 5 5 5 5 4 4 4 4 4 4 4 3 3 3 3 3 3 4 3 4 4 4 5 5 4 5 5 5 6
1 1 1 2 1 1 1 2 2 3 4 4 5 5 4 4 4 4 4 4 4 4 4 4 3 3 3 3 3 3 3 3 3 3 4 5 5 5 5 5 6 5 6
3 3 2 2 2 1 1 1 2 3 3 4 4 4 4 4 4 4 4 4 4 4 3 3 3 3 3 3 3 3 3 3 3 4 4 4 5 6 5 5 5 5 5
3 4 4 3 2 2 2 1 2 2 3 4 4 4 4 4 4 3 3 4 4 3 3 3 3 3 2 3 3 3 3 4 4 3 4 4 4 5 6 7 7 7 6
4 4 4 3 3 2 2 2 2 2 3 4 4 4 4 4 3 3 3 3 3 3 3 3 3 3 2 3 3 3 3 4 3 3 4 3 4 5 4 6 6 6 7
4 4 3 3 3 3 2 2 1 2 3 3 3 3 4 3 3 4 4 3 3 3 3 3 2 2 2 2 3 3 3 3 3 3 4 4 4 4 5 5 5 5 5
4 3 3 3 3 3 2 1 1 1 3 3 3 3 3 3 3 3 4 3 3 2 2 2 2 2 2 2 2 2 2 2 3 3 4 4 4 5 5 5 5 6 6
2 3 2 2 2 2 1 0 1 2 2 3 3 3 3 3 3 3 3 2 3 3 2 2 2 2 2 2 3 2 2 2 2 3 3 4 5 6 6 5 5 6 6
2 3 2 2 2 2 1 0 1 1 2 2 2 2 3 3 3 2 2 2 3 3 2 2 1 1 1 2 2 3 2 2 3 3 3 3 5 6 7 6 6 7 7
2 2 2 2 3 2 1 0 1 1 1 2 2 2 2 2 2 3 2 2 3 3 2 2 1 1 1 1 2 3 3 3 3 3 3 4 6 7 7 6 6 8 7
2 2 2 3 3 2 1 1 1 1 1 2 2 2 2 2 2 3 3 3 3 2 2 2 2 1 1 1 2 3 3 3 3 3 5 6 7 7 5 6 7 6 5
2 2 2 2 3 2 2 1 1 1 1 2 2 2 2 2 2 2 2 2 3 2 2 2 1 1 1 1 1 2 2 3 3 3 4 5 5 4 5 5 4 4 4
2 2 1 2 2 2 2 2 1 0 1 1 1 2 2 2 2 1 1 2 2 2 2 2 2 2 2 2 4 3 3 3 3 3 3 3 3 3 3 4 4 4 4
2 2 2 2 2 2 2 2 1 0 1 1 1 1 1 2 2 2 1 1 1 1 1 2 2 2 3 4 4 4 5 4 4 3 2 2 3 3 4 4 4 4 4
Wind_Direction
187 176 170 171 170 168 167 167 167 166 160 162 164 161 157 151 143 135 142 151 151 151 150 146 147 152 163 167 176 165 153 149 221 251 268 253 234 234 227 260 267 335 345
179 170 172 176 178 177 173 170 169 170 171 172 169 162 153 145 141 139 139 149 147 146 148 153 159 159 163 165 173 175 196 204 242 278 277 264 233 222 242 249 268 293 315
187 179 175 182 180 181 180 178 177 171 169 162 149 139 133 129 141 153 155 154 150 149 150 155 156 169 181 185 190 197 207 218 225 283 278 275 275 290 226 238 253 280 295
186 183 180 182 186 190 183 177 176 169 165 164 167 167 172 171 182 171 160 150 145 142 147 152 156 161 172 188 194 204 219 217 222 236 281 289 299 279 273 242 249 277 281
196 190 188 187 194 187 183 178 172 171 167 171 174 173 171 163 155 153 149 147 137 137 141 148 151 153 156 175 188 195 206 220 229 232 245 259 270 267 271 276 279 277 270
199 198 199 187 182 175 187 179 173 172 171 174 179 178 169 159 157 164 161 154 144 138 139 142 143 145 147 161 176 186 191 210 229 239 245 258 263 269 267 275 286 283 278
186 185 195 204 191 183 184 179 175 174 174 176 179 177 173 169 171 174 173 161 159 159 162 152 152 146 140 147 157 172 182 199 215 233 253 261 273 276 272 277 282 286 288
187 188 195 208 207 200 186 183 181 178 175 174 175 172 169 168 172 176 171 165 164 163 157 153 147 144 143 148 158 177 190 199 217 234 246 255 267 271 270 276 283 284 277
202 210 211 218 212 208 198 190 184 181 178 175 172 170 169 168 170 170 167 162 157 150 148 148 149 149 148 161 170 189 198 207 224 238 244 254 263 268 272 269 271 274 280
267 244 233 223 227 226 214 196 188 186 182 178 175 170 169 168 166 166 166 163 161 157 155 155 158 161 166 179 191 204 210 215 225 243 252 260 265 265 267 262 263 266 268
271 255 245 236 233 232 210 193 185 179 179 180 177 169 166 166 169 170 168 166 165 164 164 163 166 172 181 189 206 217 214 227 235 241 251 260 264 264 266 264 258 262 267
320 308 267 244 229 224 198 196 192 181 182 181 177 171 166 167 170 169 168 168 170 168 168 169 174 182 190 197 211 222 223 236 244 247 254 263 266 266 267 264 260 263 267
346 346 302 257 251 233 207 199 199 190 185 179 173 171 168 170 173 171 170 169 171 171 172 178 183 192 200 209 218 225 229 241 252 257 255 260 265 267 270 266 262 263 266
345 338 315 306 289 250 221 208 208 197 187 180 178 178 177 177 177 171 170 171 176 178 180 185 188 195 203 209 216 229 243 251 258 265 266 264 263 267 272 268 263 267 270
327 326 319 316 307 293 245 221 218 207 192 183 180 182 178 173 169 168 169 171 178 183 182 183 189 195 203 210 222 236 246 254 261 264 271 275 279 284 280 276 270 269 271
313 318 322 317 305 289 268 247 237 225 200 190 186 176 174 173 168 167 170 171 176 178 180 187 192 203 210 216 232 249 250 252 256 270 280 285 280 281 282 283 276 273 273
302 307 308 305 300 295 281 259 246 231 210 194 186 178 176 177 173 169 171 177 181 180 186 194 198 209 217 219 234 250 260 257 261 269 277 284 287 291 289 286 281 275 277
296 299 304 308 308 307 297 273 241 217 199 187 184 183 183 183 179 176 179 181 183 186 192 198 202 209 221 230 241 251 258 259 267 271 271 276 283 290 292 292 292 292 291
291 297 303 308 311 313 304 261 217 202 185 184 188 193 190 186 186 185 187 185 178 181 193 197 200 206 220 229 233 253 266 267 280 287 282 286 285 287 293 292 291 294 297
309 317 322 326 328 330 321 232 215 206 202 196 193 194 193 191 189 191 190 183 178 182 189 197 210 218 228 236 239 251 256 266 284 292 291 289 294 298 297 289 286 287 293
328 336 339 337 331 331 327 236 234 242 233 203 184 185 189 192 189 186 183 171 170 171 183 187 208 237 251 254 261 269 263 265 276 282 287 290 295 299 303 301 293 292 296
336 340 344 338 333 331 310 263 286 285 227 178 171 173 184 188 177 169 172 170 166 170 185 184 193 234 256 283 291 296 295 288 275 277 282 290 296 301 303 301 299 300 298
327 332 338 336 337 336 318 283 303 294 186 161 166 166 168 176 174 172 173 175 177 178 188 194 201 223 257 286 297 304 300 295 292 287 290 297 299 302 301 300 300 298 294
321 331 342 345 339 342 341 326 313 280 166 156 161 161 159 162 166 173 182 181 184 185 191 200 217 241 272 294 310 313 313 306 306 301 297 298 300 303 302 305 305 303 299
321 327 330 331 331 340 350 346 336 178 162 159 163 157 160 163 160 159 176 194 209 205 200 212 230 243 269 289 302 302 301 305 301 307 304 309 313 317 319 318 318 316 311
312 321 323 322 323 341 351 349 349 165 161 154 162 167 164 164 163 151 127 96 168 154 222 252 267 272 276 295 300 302 301 299 290 296 295 303 309 312 314 312 312 312 313
Height
1508 1509 1511 1513 1515 1518 1520 1523 1526 1528 1530 1532 1533 1535 1537 1539 1542 1544 1545 1547 1548 1549 1550 1551 1551 1552 1552 1553 1553 1553 1553 1552 1552 1551 1551 1549 1549 1548 1547 1546 1546 1545 1543
1506 1507 1509 1511 1513 1515 1518 1521 1523 1526 1528 1530 1532 1534 1536 1537 1539 1541 1543 1544 1545 1546 1547 1548 1549 1550 1550 1551 1551 1551 1551 1550 1550 1550 1549 1549 1549 1546 1545 1544 1543 1542 1541
1503 1505 1507 1509 1511 1513 1516 1518 1521 1523 1525 1527 1530 1532 1533 1535 1537 1539 1540 1542 1543 1544 1545 1546 1547 1547 1548 1548 1548 1549 1549 1548 1548 1548 1548 1548 1547 1545 1543 1541 1540 1539 1538
1501 1503 1505 1507 1509 1511 1514 1516 1518 1520 1523 1525 1527 1529 1531 1531 1534 1536 1538 1539 1540 1541 1542 1543 1544 1545 1545 1546 1546 1546 1546 1546 1545 1545 1545 1545 1544 1544 1541 1539 1538 1536 1535
1499 1501 1503 1505 1507 1509 1511 1514 1516 1518 1521 1523 1525 1527 1528 1530 1532 1534 1535 1536 1537 1539 1539 1540 1541 1542 1542 1543 1543 1544 1544 1543 1543 1543 1542 1541 1541 1540 1540 1537 1535 1533 1532
1498 1499 1501 1503 1505 1506 1508 1511 1514 1516 1518 1520 1523 1524 1526 1528 1530 1531 1532 1533 1534 1536 1537 1538 1538 1539 1540 1540 1541 1541 1540 1540 1540 1540 1539 1539 1539 1538 1537 1535 1532 1530 1528
1496 1497 1499 1501 1502 1504 1506 1508 1511 1513 1515 1518 1520 1522 1524 1525 1527 1528 1529 1530 1531 1533 1534 1535 1536 1536 1537 1537 1538 1538 1537 1537 1537 1537 1537 1536 1536 1535 1534 1532 1529 1527 1525
1493 1495 1497 1498 1500 1502 1504 1506 1508 1510 1513 1515 1517 1519 1521 1523 1525 1526 1527 1528 1529 1530 1531 1532 1533 1534 1534 1535 1535 1535 1535 1535 1534 1534 1534 1532 1532 1531 1530 1529 1527 1524 1522
1491 1493 1494 1496 1497 1499 1501 1504 1505 1507 1510 1512 1514 1516 1518 1520 1522 1523 1524 1525 1527 1528 1529 1530 1530 1531 1531 1531 1532 1532 1532 1532 1531 1531 1531 1530 1528 1528 1527 1525 1524 1524 1520
1490 1491 1492 1494 1495 1497 1499 1501 1503 1505 1507 1509 1511 1513 1515 1517 1518 1519 1521 1522 1523 1524 1525 1526 1527 1528 1528 1529 1529 1528 1528 1528 1528 1528 1527 1526 1525 1524 1523 1522 1521 1519 1518
1488 1489 1491 1492 1493 1495 1496 1498 1500 1502 1504 1506 1508 1510 1512 1513 1515 1516 1518 1519 1520 1521 1522 1523 1524 1524 1525 1525 1525 1525 1524 1524 1524 1524 1523 1522 1521 1520 1519 1518 1517 1515 1514
1487 1488 1489 1490 1491 1492 1493 1495 1497 1499 1501 1503 1505 1507 1509 1510 1512 1513 1514 1515 1517 1518 1519 1519 1520 1521 1521 1522 1522 1522 1521 1521 1520 1520 1519 1518 1517 1516 1515 1514 1512 1511 1510
1486 1486 1487 1488 1489 1489 1490 1492 1494 1496 1498 1500 1501 1504 1505 1507 1508 1509 1511 1512 1513 1514 1516 1516 1517 1517 1518 1518 1518 1518 1518 1517 1517 1516 1515 1514 1513 1512 1511 1509 1508 1507 1506
1485 1486 1486 1486 1487 1487 1488 1489 1491 1493 1494 1496 1498 1500 1502 1503 1504 1506 1507 1508 1510 1511 1512 1513 1513 1514 1514 1514 1515 1514 1514 1514 1513 1512 1511 1510 1509 1508 1507 1505 1504 1503 1502
1484 1484 1484 1484 1484 1484 1485 1487 1488 1490 1491 1493 1495 1496 1498 1500 1501 1502 1503 1505 1506 1507 1508 1509 1509 1510 1510 1511 1511 1510 1510 1510 1509 1508 1507 1506 1505 1504 1503 1501 1500 1499 1497
1482 1482 1481 1482 1482 1482 1483 1484 1485 1487 1488 1490 1491 1493 1495 1496 1497 1498 1500 1501 1502 1503 1504 1505 1506 1506 1507 1507 1507 1507 1506 1506 1505 1504 1503 1502 1501 1500 1498 1497 1496 1495 1494
1480 1480 1479 1479 1480 1480 1481 1482 1483 1484 1485 1486 1488 1489 1491 1492 1493 1495 1496 1497 1498 1500 1501 1502 1502 1503 1503 1503 1504 1503 1503 1502 1501 1500 1499 1498 1497 1496 1494 1493 1492 1491 1490
1479 1478 1478 1478 1478 1478 1479 1479 1480 1481 1482 1483 1484 1486 1487 1489 1490 1491 1493 1494 1495 1496 1497 1498 1499 1499 1499 1500 1500 1500 1499 1499 1498 1497 1496 1495 1493 1492 1491 1489 1488 1486 1485
1478 1477 1477 1476 1476 1476 1477 1477 1477 1478 1479 1480 1481 1483 1484 1485 1487 1488 1489 1491 1492 1493 1494 1495 1495 1496 1496 1496 1496 1496 1495 1495 1494 1493 1492 1491 1490 1489 1488 1486 1484 1482 1481
1476 1475 1475 1475 1475 1475 1475 1475 1475 1476 1477 1478 1479 1480 1482 1483 1484 1485 1486 1487 1489 1490 1491 1491 1492 1493 1493 1493 1493 1492 1492 1491 1490 1490 1489 1488 1487 1486 1484 1483 1481 1479 1477
1475 1474 1474 1473 1473 1473 1473 1473 1473 1474 1475 1475 1476 1478 1479 1480 1481 1482 1483 1484 1485 1487 1488 1488 1489 1489 1489 1489 1489 1489 1489 1488 1487 1486 1486 1485 1484 1482 1481 1479 1478 1476 1474
1473 1473 1472 1472 1472 1472 1471 1470 1471 1471 1472 1473 1474 1475 1476 1477 1478 1479 1480 1482 1483 1484 1484 1485 1485 1486 1486 1486 1486 1486 1486 1485 1485 1484 1483 1482 1480 1479 1477 1476 1474 1472 1470
1472 1471 1471 1470 1470 1470 1470 1469 1469 1470 1470 1470 1471 1472 1473 1474 1475 1477 1478 1479 1480 1481 1481 1482 1482 1483 1483 1483 1483 1483 1483 1482 1482 1480 1479 1478 1477 1475 1473 1472 1470 1468 1466
1470 1470 1469 1468 1468 1468 1468 1467 1467 1467 1467 1468 1468 1469 1470 1471 1473 1474 1475 1476 1477 1478 1478 1479 1479 1480 1480 1480 1480 1480 1480 1479 1478 1477 1476 1475 1473 1471 1470 1468 1466 1464 1463
1469 1469 1468 1467 1467 1466 1466 1466 1466 1465 1465 1466 1466 1467 1468 1469 1470 1471 1473 1474 1474 1475 1476 1476 1477 1477 1477 1478 1478 1478 1477 1476 1475 1474 1473 1471 1470 1468 1466 1465 1463 1461 1460
1468 1467 1467 1466 1466 1465 1465 1464 1464 1464 1464 1464 1464 1465 1466 1467 1468 1469 1470 1471 1472 1473 1473 1474 1475 1474 1475 1475 1475 1475 1475 1474 1473 1472 1470 1469 1467 1465 1463 1462 1460 1458 1456